Regional Weather Roundup
Issued by NWS

Home | Current Version | Previous Version | Graphics & Text | Print | Product List | Glossary On
Versions: 1 2 3 4 5 6 7 8 9 10 11 12 13 14 15 16 17 18 19 20 21 22 23 24 25 26 27 28 29 30 31 32 33 34 35 36 37 38 39 40 41 42 43 44 45 46 47 48 49 50
058
ASUS43 KDMX 092001
RWRIA

WEATHER ROUNDUP FOR IOWA
NATIONAL WEATHER SERVICE DES MOINES IA
200 PM CST FRI DEC 09 2016

NOTE: "FAIR" INDICATES FEW OR NO CLOUDS BELOW 12,000 FEET WITH NO
SIGNIFICANT WEATHER AND/OR OBSTRUCTIONS TO VISIBILITY.

* - THESE STATIONS ARE NOT NWS STATIONS...THUS NOT UNDER NWS
QUALITY CONTROL.  THEY ALSO DO NOT REPORT WEATHER SUCH
AS PRECIPITATION OR FOG.

IAZ001>003-012>014-020>022-031>034-043>046-092100-
   NORTHWEST IOWA

CITY           SKY/WX    TMP DP  RH WIND       PRES   REMARKS
CARROLL *      SUNNY     21  10  63 W8        30.52F WCI  12
CHEROKEE *     CLOUDY    18   9  65 W6        30.52F WCI  10
DENISON *      MOSUNNY   18  10  73 CALM      30.50F
LE MARS *      CLOUDY    16   7  67 VRB5      30.53F WCI   9
ORANGE CITY *  CLOUDY    16   9  73 W3        30.50S
SHELDON *      CLOUDY    16   7  67 W8        30.48F WCI   5
SIOUX CITY     CLOUDY    17   6  62 SW5       30.55F WCI  10
SPENCER        PTSUNNY   18   7  62 W14       30.50F WCI   4
STORM LAKE *   SUNNY     18   9  68 W8        30.49F WCI   7
$$

IAZ055>058-069>071-079>083-090>094-092100-
   SOUTHWEST IOWA

CITY           SKY/WX    TMP DP  RH WIND       PRES   REMARKS
ATLANTIC *     CLOUDY    21  10  63 SW6       30.54S WCI  14
AUDUBON *      CLOUDY    21   9  58 W7        30.52S WCI  13
CLARINDA *     CLOUDY    21  14  73 S6        30.57S WCI  14
COUNCIL BLFS * PTSUNNY   19  10  68 SW5       30.52F WCI  13
CRESTON *      CLOUDY    21  10  63 W3        30.53F
HARLAN  *      CLOUDY    19  12  73 SW3       30.56F
LAMONI         CLOUDY    23  10  57 W5        30.52F WCI  17
RED OAK *      CLOUDY    21  12  68 S3        30.55S
SHENANDOAH *   CLOUDY    23  12  63 S7        30.55S WCI  15
$$

IAZ047>049-059>061-072>074-084-092100-
   CENTRAL IOWA

CITY           SKY/WX    TMP DP  RH WIND       PRES   REMARKS
AMES           SUNNY     21  12  68 VRB7      30.54F WCI  12
ANKENY *       SUNNY     21   9  58 W6        30.55F WCI  14
BOONE *        SUNNY     21  10  63 W8        30.52S WCI  12
CHARITON *     CLOUDY    23  10  58 VRB5      30.53F WCI  17
DES MOINES     PTSUNNY   22  10  60 SW5       30.54F WCI  16
GRINNELL*      SUNNY     20  12  68 SW6       30.54F WCI  13
KNOXVILLE *    PTSUNNY   21   9  58 W6        30.53F WCI  14
MARSHALLTOWN   SUNNY     21  12  68 NW6       30.53F WCI  13
NEWTON *       SUNNY     21  10  63 VRB6G15   30.53F WCI  14
PELLA *        MOSUNNY   22  12  64 W7        30.56F WCI  14
$$

IAZ004>006-015-016-023>025-035-036-092100-
   NORTH CENTRAL IOWA

CITY           SKY/WX    TMP DP  RH WIND       PRES   REMARKS
ALGONA *       SUNNY     19  10  68 CALM      30.50F
CLARION *      SUNNY     21  10  63 W7        30.51S WCI  13
ESTHERVILLE    CLOUDY    16   8  71 W7        30.49F WCI   6
FORT DODGE *   MOSUNNY   21  10  63 W6        30.53F WCI  14
MASON CITY     SUNNY     20  10  65 NW6       30.51F WCI  12
WEBSTER CITY * MOSUNNY   21  12  68 VRB7G16   30.50F WCI  13
IOWA FALLS *     N/A     22  14  71 W7        30.52F WCI  13
$$

IAZ007>011-017>019-026>030-037>042-050>054-066-092100-
   NORTHEAST IOWA

CITY           SKY/WX    TMP DP  RH WIND       PRES   REMARKS
CEDAR RAPIDS   MOSUNNY   18  13  80 W8        30.54S WCI   8
CHARLES CITY * SUNNY     18  10  73 W6        30.51F WCI   9
CLINTON *      PTSUNNY   24  14  65 W10       30.53F WCI  14
DECORAH *      SUNNY     18  10  73 VRB7      30.49S WCI   8
DUBUQUE        MOSUNNY   18  12  77 W8        30.50F WCI   8
MONTICELLO *   MOSUNNY   19  12  73 W8        30.52F WCI   9
OELWEIN *      SUNNY     18  12  79 W7        30.52S WCI   8
WATERLOO       CLOUDY    19  11  70 NW5       30.53F WCI  12
$$

IAZ064-065-067-068-078-092100-
   EAST CENTRAL IOWA

CITY           SKY/WX    TMP DP  RH WIND       PRES   REMARKS
DAVENPORT      MOSUNNY   22  13  68 W6        30.54S WCI  14
IOWA CITY      CLOUDY    22  12  65 MISG      30.57F
MUSCATINE *    PTSUNNY   25  12  58 W8        30.57F WCI  16
QUAD CITIES    CLOUDY    24  12  60 W7        30.55F WCI  16
$$

IAZ062-063-075>077-085>089-095>099-092100-
   SOUTHEAST IOWA

CITY           SKY/WX    TMP DP  RH WIND       PRES   REMARKS
BURLINGTON     MOSUNNY   22  12  65 W6        30.55F WCI  14
FAIRFIELD *    MOSUNNY   21  10  63 W8        30.55F WCI  12
FORT MADISON * CLOUDY    21  12  68 W3        30.56F
KEOKUK *       CLOUDY    23  14  68 NW5       30.55F WCI  17
OSKALOOSA *      N/A     21  11  66 W8        30.55F WCI  11
CENTERVILLE *    N/A     23  10  58 CALM      30.55F
OTTUMWA        CLOUDY    22   9  57 W8        30.55F WCI  12
WASHINGTON *   PTSUNNY   21  12  68 W8G14     30.57F WCI  12
$$

ABBREVIATIONS USED IN REMARKS
   TC - TEMPERATURES IN CELSIUS
  WCI - WIND CHILL INDEX
   HX - HEAT INDEX
  VSB - VISIBILITY
$$





USA.gov is the U.S. government's official web portal to all federal, state and local government web resources and services.